Overview Statistics Trail Chart Weather Telemetry Raw packets
 

This is the latest recevied weather packets stored in our database for station/object N3LF. If no packets are shown the sender has not sent any weather packets the latest 10 day(s).

<< 20 21 22 23 24 25 26 >>
Time Temp. Humidity Pressure Rain* Wind** Luminosity Snow
1788483923 29.44° C 74% 1016.9 hPa 0 mm - 0 W/m² -
1788483620 29.44° C 73% 1017 hPa 0 mm - 0 W/m² -
1788483319 29.44° C 73% 1017 hPa 0 mm - 0 W/m² -
1788483015 29.44° C 74% 1017.2 hPa 0 mm - 0 W/m² -
1788482711 30° C 72% 1017.1 hPa 0 mm - 0 W/m² -
1788482411 30° C 72% 1017.1 hPa 0 mm - 0 W/m² -
1788482107 30° C 72% 1017 hPa 0 mm - 0 W/m² -
1788481802 30° C 71% 1016.9 hPa 0 mm - 0 W/m² -
1788481498 30.56° C 72% 1016.8 hPa 0 mm - 1 W/m² -
1788481197 31.11° C 71% 1016.8 hPa 0 mm - 2 W/m² -
1788480893 31.67° C 69% 1016.6 hPa 0 mm - 3 W/m² -
1788480593 32.22° C 68% 1016.8 hPa 0 mm - 6 W/m² -
1788480292 32.78° C 67% 1016.5 hPa 0 mm - 8 W/m² -
1788479988 32.78° C 65% 1016.7 hPa 0 mm - 11 W/m² -
1788479684 33.33° C 64% 1016.9 hPa 0 mm - 15 W/m² -
1788479383 33.89° C 64% 1016.7 hPa 0 mm - 19 W/m² -
1788479079 33.89° C 61% 1016.8 hPa 0 mm - 22 W/m² -
1788478776 34.44° C 60% 1016.8 hPa 0 mm - 26 W/m² -
1788478471 35.56° C 57% 1016.7 hPa 0 mm - 30 W/m² -
1788478174 35.56° C 54% 1016.7 hPa 0 mm - 38 W/m² -
1788477866 36.67° C 52% 1016.3 hPa 0 mm - 43 W/m² -
1788477566 37.22° C 49% 1016.4 hPa 0 mm - 50 W/m² -
1788477261 37.22° C 49% 1016.4 hPa 0 mm - 57 W/m² -
1788476956 36.67° C 49% 1016.2 hPa 0 mm - 64 W/m² -
1788476651 36.67° C 49% 1016.4 hPa 0 mm - 72 W/m² -

* Rain latest hour (hover to see other rain measurements)
** Current wind speed in m/s (hover to see current wind gust speed)